Weather Roundup
Issued by NWS Chicago, IL

Home | Current Version | Previous Version | Text Only | Print | Product List | Glossary On
Versions: 1 2 3 4 5 6 7 8 9 10 11 12 13 14 15 16 17 18 19 20 21 22 23 24 25 26 27 28 29 30 31 32 33 34 35 36 37 38 39 40 41 42 43 44 45 46 47 48 49 50
000
NZUS59 KLOT 260710
HRRLOT

CHICAGO AREA WEATHER ROUNDUP
NATIONAL WEATHER SERVICE CHICAGO/ROMEOVILLE IL
200 AM CDT SUN OCT 26 2014

NOTE: "FAIR" INDICATES FEW OR NO CLOUDS BELOW 12,000 FEET WITH NO
SIGNIFICANT WEATHER AND/OR OBSTRUCTIONS TO VISIBILITY.

* THESE STATIONS ARE NOT UNDER NWS QUALITY CONTROL. THEY ALSO MAY NOT
  REPORT WEATHER SUCH AS PRECIPITATION OR FOG.

ILZ005-006-012>014-019>023-260800-
NORTHEAST ILLINOIS

CITY           SKY/WX    TMP DP  RH WIND       PRES   REMARKS
OHARE          CLEAR     50  29  44 W9        29.98R
MIDWAY         CLEAR     52  30  43 NW7       29.99R
AURORA         CLEAR     37  31  78 NW6       30.01S
LANSING*       CLEAR     42  32  68 CALM      29.99R
JOLIET*        CLEAR     46  32  57 CALM      30.00S
WAUKEGAN       CLEAR     49  28  44 W6        29.97R
DUPAGE AIRPORT CLEAR     49  29  46 NW9       29.99S
WHEELING       CLEAR     53  27  36 NW9       30.00R
KANKAKEE*      CLEAR     43  37  79 W3        30.01S
MORRIS*        CLEAR     40  34  78 W5        30.00S
LEWIS AIRPORT* CLEAR     42  33  70 W5        30.00S
NORTHERLY IS     N/A     56  27  33 W13         N/A
$$

WIZ051-052-058>065-066-070>072-260800-
SOUTHEAST WISCONSIN

CITY           SKY/WX    TMP DP  RH WIND       PRES   REMARKS
MILWAUKEE      CLEAR     50  27  40 NW9       29.97R
KENOSHA*       CLEAR     50  29  44 NW9       29.98R
RACINE*        CLEAR     48  28  46 W6        29.99R
BURLINGTON     CLEAR     44  30  56 NW10      29.99S
WAUKESHA       CLEAR     43  30  61 NW9       29.99R
WEST BEND      CLEAR     45  27  49 W9        29.97S
$$

INZ001>003-010>013-019-020-260800-
NORTHWEST INDIANA

CITY           SKY/WX    TMP DP  RH WIND       PRES   REMARKS
GARY*          CLEAR     50  31  47 W8        29.98S
MICHIGAN CITY* NOT AVBL
RENSSELAER*    NOT AVBL
VALPARAISO     CLEAR     53  31  42 NW7       29.98R
$$

LMZ740>746-260800-
SOUTHERN LAKE MICHIGAN

STATION/POSITION TIME  SKY/WX   TEMP WIND        PRES    VSBY
                                AIR  DIR/SP/G
                 (UTC)          (F)  (DEG/KT/KT) (MB)    (MI)
HARRISON CRIB    0600            57  290/ 16/ 20   N/A
BURNHAM HARBOR   0700            56  270/ 10/ 12   N/A
CALUMET HARBOR   0700            53  280/  4/  9 1014.1R
BURNS HARBOR     NOT AVBL
MICHIGAN CITY    0700            56  280/ 17/ 19   N/A
$$

ABBREVIATIONS USED IN REMARKS
   TC - TEMPERATURE IN CELSIUS
  WCI - WIND CHILL INDEX
   HX - HEAT INDEX
  VSB - VISIBILITY
$$



USA.gov is the U.S. government's official web portal to all federal, state and local government web resources and services.